Wind_Speed
7 5 3 2 2 2 3 3 4 3 3 3 3 3 3 2 2 1 1 1 1 1 1 2 2 1 2 3 3 4 4 4 4 4 4 5 6 5 5 8 8 7 6 5 5 5 6 7 7 6 7 6 6 7 8 8 8 9 10 9 9 8 6
7 5 3 1 1 2 3 3 4 3 3 3 3 3 3 2 2 2 2 2 2 1 2 2 2 1 2 2 3 3 3 3 4 5 5 5 6 5 5 6 6 5 5 4 5 5 5 5 5 6 7 6 5 6 7 7 7 7 7 7 6 5 5
7 5 3 1 0 1 2 3 4 4 4 3 3 3 2 2 2 3 2 2 2 2 2 3 3 3 3 3 3 3 3 3 3 5 6 5 6 6 5 4 4 3 3 3 2 2 2 2 2 2 3 3 3 4 5 5 5 6 6 5 5 4 4
7 6 4 3 1 1 2 3 3 4 4 4 3 2 2 2 2 3 3 3 3 2 2 3 3 3 3 3 3 3 3 3 3 4 5 5 5 5 5 5 4 4 4 3 2 1 0 1 1 1 2 3 3 2 3 3 3 5 5 4 4 4 4
9 7 6 4 2 2 2 3 4 4 5 4 3 2 1 2 2 3 4 4 4 3 3 3 3 3 3 3 3 3 3 3 3 3 3 3 3 4 4 4 4 5 5 4 3 2 2 1 1 2 2 2 2 2 3 2 2 3 4 4 4 4 5
11 9 7 5 4 3 3 4 4 4 5 5 4 2 1 1 2 3 4 4 4 4 4 4 3 3 3 3 3 3 3 3 3 3 3 3 3 3 3 3 4 4 3 3 4 3 2 2 1 1 1 2 3 4 4 3 3 4 4 5 5 5 6
12 10 7 6 5 4 3 4 4 5 5 5 4 3 1 1 2 2 3 3 4 4 4 4 4 4 4 3 3 3 3 3 3 3 3 3 3 2 3 3 3 3 2 3 3 3 3 2 1 1 1 1 1 2 2 2 2 3 3 3 4 4 5
14 11 8 7 6 4 4 4 4 5 5 6 5 3 2 1 1 1 3 3 4 4 4 4 5 5 5 4 4 4 3 3 2 2 2 2 3 3 3 3 3 3 2 2 3 3 4 3 1 1 3 4 4 3 2 2 3 3 3 3 3 4 4
14 12 9 8 7 5 4 4 4 5 6 7 5 3 1 1 1 2 3 4 4 4 5 5 5 6 6 5 5 4 4 3 3 3 3 2 2 2 2 3 3 3 3 3 3 3 3 3 2 2 4 4 2 4 3 3 4 4 4 4 4 4 4
16 14 11 9 8 7 6 5 5 6 6 7 5 2 1 1 2 3 3 4 4 4 5 5 6 6 6 6 5 5 4 4 3 3 3 3 3 3 2 2 2 2 2 2 2 2 3 3 3 3 2 5 3 3 4 5 5 4 4 4 4 4 4
19 16 12 10 10 9 8 7 7 7 7 6 5 2 0 1 1 2 3 4 4 4 5 5 5 5 5 5 5 5 5 5 4 4 3 3 2 2 2 2 2 2 2 2 1 1 2 2 3 3 2 4 6 4 2 5 5 3 4 4 4 3 3
22 19 15 12 11 11 10 9 8 9 9 7 6 4 2 1 1 1 2 2 3 3 3 3 3 3 3 4 4 4 4 4 4 4 4 3 3 2 2 2 1 2 1 1 1 1 1 1 1 2 1 1 1 2 2 3 4 4 4 5 4 4 3
25 20 17 14 12 12 11 10 10 10 10 9 8 7 5 3 2 1 1 1 2 2 2 3 3 3 3 3 3 3 3 3 2 2 2 2 3 3 2 2 2 1 1 1 1 1 1 1 1 1 1 1 1 1 2 3 4 4 5 5 4 4 4
25 22 19 16 14 14 13 12 12 12 12 12 11 10 8 6 5 4 3 2 1 0 1 2 3 4 4 3 3 2 1 1 1 1 1 1 1 1 1 1 1 1 1 1 0 1 0 0 1 1 1 1 1 1 3 4 4 5 5 6 6 6 6
25 24 21 18 16 15 15 14 14 14 14 14 13 12 10 9 8 7 6 5 4 2 1 3 4 5 5 5 4 3 3 2 2 2 2 2 2 2 2 2 2 2 1 1 1 1 1 1 2 2 2 2 3 3 4 6 6 6 7 7 7 8 8
25 25 21 18 17 17 17 16 16 16 16 16 15 14 13 13 11 10 9 8 7 6 5 4 5 6 6 6 7 7 6 6 5 5 5 5 4 4 4 4 3 4 4 4 4 5 5 5 6 6 7 7 7 7 7 7 8 9 9 9 10 10 10
25 25 23 21 20 19 19 18 18 19 19 18 17 16 16 15 13 13 13 12 11 9 8 8 8 8 8 8 9 9 9 10 9 8 8 7 7 7 7 6 6 6 6 6 6 6 7 7 8 8 9 9 9 9 9 10 9 9 11 12 11 12 14
23 26 26 25 23 21 21 21 21 22 22 20 19 19 18 17 16 15 15 15 14 13 12 12 11 11 10 10 11 11 11 12 11 11 10 9 9 9 9 10 10 9 9 8 8 8 8 8 9 9 9 10 10 10 10 10 10 9 11 12 13 14 16
23 26 26 23 22 21 22 24 24 24 23 22 21 20 20 19 18 17 17 16 16 16 16 15 14 13 13 13 13 13 14 13 12 12 12 11 10 11 11 12 12 11 11 10 10 10 10 10 11 11 11 11 12 12 10 10 12 12 12 13 14 15 16
24 23 21 19 19 20 21 23 23 23 23 23 23 22 22 21 20 20 20 18 17 18 19 18 16 14 14 15 15 15 15 14 13 12 12 12 12 11 11 11 11 11 11 12 12 13 12 12 12 13 13 12 13 14 14 13 14 14 13 13 14 15 17
21 17 15 16 17 17 19 20 21 22 23 23 23 23 23 23 23 23 22 18 18 20 20 19 18 15 14 16 17 17 16 15 14 13 11 11 10 9 8 8 9 9 9 10 11 12 12 12 13 14 14 14 15 16 17 16 16 16 16 14 12 14 16
13 11 13 15 17 17 18 19 20 21 22 23 23 24 23 24 26 26 23 21 21 22 20 19 17 15 15 17 19 20 18 15 13 12 10 8 7 6 6 6 7 7 7 8 9 10 11 12 13 14 14 14 15 16 17 17 17 19 19 15 13 15 18
9 11 14 16 17 19 20 20 21 21 21 23 24 25 25 25 27 26 23 23 23 21 19 17 16 16 18 20 22 20 15 10 9 8 7 6 5 4 5 6 7 8 9 10 11 12 13 14 14 15 15 15 16 16 17 17 18 19 19 18 19 21 22
15 18 19 19 19 19 19 19 19 20 22 24 25 26 26 25 25 25 23 23 23 21 18 16 16 17 18 20 21 18 13 8 7 6 6 6 7 7 8 10 10 10 11 12 13 14 15 15 16 16 16 17 18 18 19 20 21 21 21 21 23 24 24
21 23 24 24 23 21 19 18 18 19 21 23 24 26 26 25 26 26 26 25 23 18 15 15 17 17 17 17 17 16 13 11 10 9 9 9 9 10 11 12 12 12 12 14 15 16 16 16 17 18 18 18 18 19 20 21 21 23 23 23 23 25 26
23 23 22 22 21 20 17 16 17 18 20 22 24 26 26 26 26 27 26 26 23 17 14 15 16 15 14 13 12 12 12 12 11 11 11 11 11 12 13 13 14 14 15 17 17 17 17 18 19 19 19 19 19 19 20 21 21 22 24 25 24 25 27
22 22 20 18 17 16 16 15 16 17 18 20 22 23 23 24 24 24 24 23 19 14 12 12 12 11 11 10 11 11 11 11 11 11 12 12 13 13 14 15 16 16 17 17 18 19 19 19 20 20 20 19 19 19 20 21 21 22 23 25 25 25 26
21 20 19 19 18 17 16 16 17 18 18 18 19 19 20 21 21 22 23 19 12 9 10 10 10 10 10 10 11 11 11 11 12 12 13 14 14 14 15 16 16 17 16 16 17 18 19 19 20 20 21 20 20 21 21 21 22 22 23 24 25 25 26
21 20 20 19 19 17 17 17 18 19 19 19 19 19 19 20 19 19 19 17 13 11 11 11 10 10 10 10 12 12 13 13 14 14 15 16 16 16 16 16 17 17 16 17 17 18 19 20 21 21 21 21 21 21 22 22 22 23 23 24 25 26 27
20 21 20 20 19 17 16 17 17 18 18 18 18 18 18 19 19 17 18 18 16 15 14 12 12 12 12 12 13 13 13 15 15 16 17 18 18 18 17 18 18 17 17 17 18 18 19 20 22 22 21 21 22 22 22 23 23 24 24 25 27 28 28
19 19 18 19 18 17 16 16 17 17 18 18 18 18 18 19 19 19 19 19 18 17 16 14 14 14 14 14 14 14 14 15 16 17 19 21 20 19 20 20 20 19 19 19 19 20 20 21 23 25 24 23 24 24 24 23 24 26 27 27 29 30 30
20 18 17 18 19 19 19 20 19 19 19 19 19 19 20 21 21 21 21 21 20 19 18 17 17 16 16 16 16 15 14 16 17 18 21 23 22 21 21 21 21 21 21 21 22 21 21 22 24 25 26 26 27 28 27 26 26 28 30 30 31 32 33
21 21 20 21 21 21 22 23 22 22 21 20 19 19 18 19 21 23 23 22 22 21 20 19 19 18 18 18 18 18 16 17 19 20 21 25 26 25 25 24 23 23 23 24 24 23 22 23 24 25 26 27 28 30 31 30 29 30 32 33 34 35 35
24 23 23 24 24 23 24 25 25 25 23 22 21 21 20 20 23 25 24 23 23 22 21 21 20 20 21 21 21 22 20 20 21 21 23 26 25 27 31 31 27 25 26 26 26 25 25 25 25 26 27 28 29 30 32 33 33 33 33 34 35 36 37
26 25 25 26 26 25 25 26 26 26 25 24 25 26 26 26 26 26 26 25 25 25 24 24 24 24 25 24 24 24 23 22 22 22 24 24 21 25 33 34 28 27 27 27 27 27 27 27 27 28 28 29 31 32 33 35 36 35 35 35 35 36 36
27 27 26 27 27 26 26 26 26 26 25 25 26 27 28 28 29 31 31 31 31 31 30 29 28 26 26 25 25 25 24 23 22 22 22 22 21 26 32 30 27 27 27 27 28 28 28 28 29 29 30 31 32 33 34 35 36 36 36 35 35 35 35
28 28 28 28 28 27 26 25 25 26 26 27 27 28 28 29 29 31 33 33 33 33 32 30 29 28 28 28 27 27 26 25 24 23 23 22 23 28 31 29 28 30 29 29 30 30 30 31 31 31 32 33 33 34 35 35 36 35 35 35 35 34 34
Wind_Direction
153 152 138 105 65 43 46 48 43 36 33 31 35 43 51 56 59 64 71 68 64 71 106 112 92 157 214 231 236 225 224 241 234 226 249 262 269 289 283 276 280 281 288 296 286 286 281 273 269 259 261 265 263 270 275 279 285 286 283 284 288 297 306
155 153 140 101 51 39 37 36 32 30 26 23 22 27 40 55 66 72 77 96 109 110 120 134 136 157 177 183 215 214 204 226 219 209 225 239 252 274 282 275 278 277 276 278 268 266 269 274 269 255 255 264 269 277 285 287 287 282 277 276 280 286 290
165 158 156 165 46 26 28 28 24 26 24 20 21 20 32 51 73 86 93 109 124 133 132 138 142 142 147 154 180 190 183 197 200 201 212 217 227 237 240 239 242 245 248 261 252 213 210 254 264 263 276 284 280 284 296 297 285 275 272 271 274 275 277
174 175 181 194 214 316 336 354 357 8 15 13 14 11 34 64 84 96 101 110 116 131 138 140 142 142 146 150 164 175 174 182 184 188 198 205 214 219 220 224 224 227 234 249 278 291 177 208 224 284 311 309 304 313 328 331 282 268 271 268 266 267 275
183 189 189 201 239 278 297 324 332 348 1 3 5 359 17 81 94 97 101 107 111 116 118 123 133 140 150 155 161 170 171 174 176 178 189 201 214 214 219 227 231 238 241 237 238 261 288 293 280 282 288 286 292 304 316 329 288 263 263 270 274 277 282
187 192 194 218 250 260 280 313 320 334 352 356 359 348 331 86 95 99 102 102 104 106 103 104 110 117 134 149 156 165 171 173 174 176 184 196 209 215 216 220 223 224 229 220 203 204 238 263 276 273 264 257 266 285 289 285 280 274 274 282 284 284 285
186 190 201 226 240 244 272 300 306 325 345 352 358 351 340 54 90 101 101 99 98 99 102 105 106 105 106 113 121 133 149 161 172 181 189 201 209 218 218 219 225 214 201 194 184 177 186 198 231 196 120 51 37 28 342 317 318 312 314 310 302 300 298
190 193 203 221 230 239 269 284 292 316 333 343 352 352 352 38 73 85 89 87 84 87 92 93 94 94 93 92 99 103 110 120 132 156 181 206 215 226 227 226 229 229 221 199 192 191 184 174 186 163 98 65 71 115 184 290 321 317 315 314 307 309 307
206 203 203 214 225 237 258 269 282 299 315 328 338 347 7 67 84 78 83 80 74 71 71 72 72 75 75 72 77 81 86 94 103 116 125 138 160 189 213 222 225 226 232 225 221 221 202 193 192 159 103 83 11 303 283 289 304 297 297 302 299 302 304
221 214 206 211 222 234 248 258 272 284 300 314 319 333 14 116 120 106 100 90 84 76 68 66 64 64 66 65 65 65 64 67 75 87 99 110 119 124 133 150 173 194 206 209 216 214 211 214 197 184 156 145 149 327 318 297 299 307 309 310 315 320 319
228 224 213 211 222 234 244 252 265 278 287 297 298 298 317 191 154 133 124 110 101 92 80 73 65 60 57 57 58 58 59 58 55 58 61 72 88 101 110 116 120 131 141 144 162 177 180 194 177 178 205 167 150 149 216 267 295 320 318 316 324 325 324
232 233 223 213 222 234 240 249 265 274 273 278 285 279 263 241 214 167 144 128 114 99 87 78 68 59 48 43 41 40 47 50 47 52 56 60 65 71 81 90 102 114 125 135 137 140 148 171 173 166 165 161 159 172 214 275 309 317 312 313 318 319 319
232 234 230 220 222 230 237 250 265 270 264 268 279 276 271 270 258 238 213 162 124 97 73 56 43 39 39 42 37 28 28 29 26 30 41 56 66 69 75 78 81 96 98 123 140 134 121 101 66 54 73 65 29 1 328 318 316 313 313 311 305 305 308
230 233 235 230 227 228 236 250 264 267 260 262 272 274 275 277 272 271 265 250 222 133 41 15 0 359 4 10 16 11 354 349 343 338 339 335 357 20 53 82 93 111 97 84 127 143 145 139 121 102 64 40 11 337 321 312 300 292 294 296 297 299 302
227 232 235 233 232 234 238 248 261 266 261 258 262 267 273 277 276 275 272 271 273 270 300 339 336 332 328 327 326 320 306 297 288 288 288 283 282 284 283 279 268 260 249 233 241 242 247 263 266 268 270 275 282 290 297 299 293 286 283 290 298 292 288
225 233 237 235 237 241 244 249 259 266 263 257 256 261 267 269 271 274 276 277 280 277 280 303 321 321 316 312 303 296 292 285 280 281 278 276 275 272 274 271 267 271 266 254 254 255 257 260 264 272 278 280 283 287 289 290 294 298 296 301 306 294 288
224 235 244 247 248 248 250 253 258 263 262 256 255 258 260 263 268 274 278 280 281 278 276 284 299 307 313 315 306 296 290 282 278 280 281 282 278 275 275 269 267 271 268 262 262 259 255 257 261 267 272 277 280 284 285 285 287 294 296 299 301 293 293
222 235 246 251 253 253 255 257 258 261 260 257 255 256 257 260 265 269 272 277 279 279 278 282 291 299 307 315 312 307 302 293 283 277 278 281 281 282 283 279 275 274 268 264 265 266 265 267 272 275 276 280 281 279 280 281 281 284 288 291 291 287 288
228 239 245 250 256 258 259 260 259 257 254 253 254 255 255 257 260 263 265 267 271 275 278 282 289 295 301 307 308 306 302 298 289 275 267 270 279 286 289 287 282 278 272 268 269 272 274 276 280 281 282 287 287 284 284 283 281 282 284 285 287 286 285
230 237 244 250 257 260 259 258 254 249 246 246 250 252 252 253 255 259 260 258 262 270 274 277 279 283 291 297 299 298 293 289 282 270 259 260 270 280 286 288 286 281 276 272 273 277 282 286 288 284 284 289 290 289 290 285 280 279 276 277 280 283 286
220 226 241 250 254 257 257 253 245 240 238 239 243 247 248 250 253 256 255 252 257 265 266 266 266 269 278 286 289 289 284 278 275 267 257 253 258 269 279 287 290 288 287 284 282 285 289 294 296 292 290 293 292 290 289 284 281 282 275 269 274 281 285
220 223 236 242 244 245 246 242 237 235 234 235 238 242 243 247 250 249 248 251 256 258 259 262 269 277 281 282 286 285 278 272 270 265 257 252 250 249 262 279 290 293 296 297 295 296 298 299 301 301 301 300 297 294 293 289 291 294 287 277 280 286 286
241 241 241 243 244 241 236 233 230 231 235 238 242 245 249 254 252 244 242 252 257 257 259 265 275 283 285 285 289 290 283 273 269 265 263 269 271 263 265 278 289 293 294 298 299 299 301 301 301 301 302 301 299 297 296 294 295 296 293 287 287 290 289
248 251 252 255 255 247 239 233 228 231 238 242 245 248 252 258 256 249 250 256 256 254 259 268 275 278 281 283 285 288 291 289 287 289 297 302 302 301 299 296 296 294 293 294 296 296 297 298 297 297 295 294 293 292 292 293 293 293 292 290 291 292 293
250 250 250 250 248 244 240 236 229 231 236 240 245 250 252 256 257 255 259 263 260 257 259 267 271 273 276 277 277 280 285 288 292 297 302 304 303 303 302 301 300 296 293 293 295 296 296 295 293 292 290 288 288 288 288 290 292 293 293 293 293 294 295
250 250 247 246 246 244 244 243 240 238 238 240 246 252 256 259 258 257 260 262 263 263 265 266 265 264 264 264 265 270 276 281 284 288 291 293 292 293 294 295 294 292 292 292 293 293 294 294 292 290 289 287 287 286 287 289 290 290 292 293 294 294 295
250 251 250 250 252 249 246 245 246 246 246 246 249 252 254 257 258 261 263 262 261 262 262 259 253 250 250 252 258 266 274 278 278 278 280 279 279 283 287 288 288 287 288 289 290 291 292 292 291 290 289 289 288 287 288 289 289 290 291 292 293 294 294
250 250 250 251 253 251 247 245 245 247 250 252 252 252 253 256 259 261 261 261 262 262 255 249 246 247 249 252 259 265 271 275 275 275 276 274 274 278 280 282 284 286 289 290 290 290 290 289 288 289 290 290 290 290 289 289 289 289 290 291 292 292 292
250 249 249 251 251 251 251 249 248 249 251 251 251 250 252 254 254 250 247 248 253 253 249 247 248 251 254 256 261 265 269 272 274 276 274 272 273 277 278 278 280 282 287 289 288 287 287 287 287 288 289 290 290 289 289 289 289 289 290 290 290 290 291
247 249 249 249 251 255 258 258 257 256 254 250 247 245 244 244 242 240 240 243 244 244 244 245 247 250 253 256 260 264 268 270 272 273 272 269 270 275 277 277 278 280 283 285 287 289 290 290 290 290 290 290 290 290 290 292 294 293 293 293 293 293 293
242 247 251 252 253 257 259 259 258 257 253 248 244 242 242 241 240 240 242 244 244 245 246 246 248 251 253 256 259 262 267 270 270 270 270 267 266 271 277 279 280 283 286 288 291 293 294 294 294 295 295 295 293 292 293 295 297 296 296 296 296 296 296
244 247 252 255 257 258 258 257 257 257 256 255 253 251 250 249 247 245 245 247 248 249 249 249 252 253 254 257 260 261 264 268 268 271 274 271 266 267 273 279 283 287 292 294 295 296 296 295 295 295 296 297 296 296 295 296 297 297 297 296 295 295 295
245 248 250 254 256 257 257 258 258 257 258 258 257 254 250 249 250 251 250 250 251 251 252 254 256 256 257 260 263 265 266 267 270 274 278 279 279 276 273 273 280 288 292 293 292 292 292 291 290 291 293 294 296 297 298 298 298 298 298 297 296 295 294
244 246 248 250 252 253 254 256 257 257 257 255 254 254 253 253 255 254 251 249 250 251 253 256 258 262 266 269 272 273 272 271 273 276 277 281 287 285 278 276 280 286 289 288 288 288 288 288 288 288 290 292 293 296 298 298 298 298 297 296 296 296 295
246 247 247 248 251 255 256 257 258 258 257 256 256 257 256 255 255 256 254 252 253 256 259 263 267 270 274 277 277 278 278 275 274 274 276 280 282 278 279 284 289 289 288 287 287 287 287 288 289 289 290 291 293 295 296 297 298 298 297 296 296 296 295
250 251 250 249 250 253 255 256 256 256 257 257 258 259 256 252 252 256 258 258 259 262 264 267 271 274 277 278 278 278 277 276 274 273 275 278 277 276 281 289 293 291 289 288 287 287 288 288 289 290 290 291 292 294 295 296 296 297 297 297 297 297 297
252 253 252 251 249 250 251 253 253 254 256 258 258 259 258 254 252 255 258 260 262 264 265 265 267 271 274 276 278 278 277 276 277 277 277 278 281 283 288 293 293 291 291 290 289 289 289 289 290 290 291 291 292 293 294 294 295 296 297 297 297 298 297
Height
3137 3138 3138 3138 3139 3138 3138 3138 3137 3137 3137 3137 3137 3136 3136 3136 3136 3136 3136 3136 3136 3136 3135 3135 3135 3135 3135 3135 3134 3134 3135 3135 3136 3137 3138 3138 3138 3138 3138 3140 3141 3142 3143 3145 3144 3144 3145 3145 3145 3146 3147 3148 3149 3149 3149 3149 3149 3149 3149 3149 3149 3149 3149
3138 3138 3139 3139 3139 3139 3139 3138 3138 3138 3137 3137 3137 3136 3136 3136 3136 3136 3136 3137 3136 3136 3136 3136 3135 3135 3135 3135 3134 3134 3134 3135 3135 3136 3136 3137 3138 3138 3139 3139 3140 3141 3142 3143 3144 3144 3144 3144 3145 3146 3147 3147 3148 3148 3148 3148 3148 3149 3149 3149 3148 3149 3149
3139 3139 3139 3140 3140 3140 3139 3139 3139 3138 3138 3138 3137 3137 3137 3137 3137 3137 3137 3137 3137 3137 3136 3136 3136 3136 3136 3135 3135 3135 3135 3135 3135 3136 3136 3137 3137 3138 3138 3139 3140 3141 3142 3142 3143 3143 3144 3145 3145 3146 3146 3146 3147 3147 3147 3147 3147 3148 3148 3148 3149 3149 3148
3139 3140 3140 3140 3141 3140 3140 3140 3139 3139 3139 3138 3138 3137 3137 3137 3137 3137 3137 3137 3137 3137 3137 3137 3137 3136 3136 3136 3136 3136 3135 3135 3136 3136 3136 3137 3137 3138 3138 3139 3139 3140 3141 3142 3142 3142 3144 3144 3145 3146 3146 3146 3146 3146 3146 3146 3147 3147 3148 3148 3148 3148 3148
3138 3140 3140 3141 3141 3141 3140 3140 3140 3139 3139 3139 3138 3138 3137 3137 3137 3137 3137 3137 3137 3137 3137 3137 3137 3137 3137 3137 3136 3136 3136 3136 3136 3137 3137 3137 3138 3138 3139 3139 3139 3139 3140 3141 3142 3143 3143 3144 3145 3145 3145 3146 3146 3146 3146 3146 3147 3147 3147 3147 3147 3147 3147
3138 3139 3140 3141 3141 3141 3141 3140 3140 3140 3139 3139 3139 3138 3138 3138 3138 3137 3137 3138 3138 3137 3137 3137 3137 3137 3137 3137 3137 3137 3137 3137 3137 3138 3138 3138 3138 3139 3139 3139 3139 3140 3140 3141 3142 3143 3143 3144 3144 3145 3145 3145 3145 3146 3146 3146 3146 3146 3146 3146 3146 3146 3146
3137 3138 3139 3140 3140 3140 3140 3140 3140 3140 3140 3140 3139 3139 3139 3138 3138 3138 3138 3138 3138 3138 3138 3138 3137 3137 3137 3137 3137 3137 3138 3138 3138 3138 3139 3139 3139 3139 3140 3140 3140 3140 3141 3141 3142 3142 3143 3144 3144 3145 3145 3145 3146 3147 3146 3145 3146 3146 3146 3145 3145 3145 3146
3135 3137 3138 3139 3139 3140 3140 3140 3140 3140 3140 3140 3140 3140 3139 3139 3139 3138 3138 3138 3139 3139 3138 3138 3138 3138 3138 3138 3138 3138 3138 3138 3138 3139 3139 3139 3140 3140 3140 3141 3141 3141 3141 3142 3142 3142 3142 3143 3144 3144 3145 3146 3147 3147 3147 3146 3145 3145 3145 3145 3145 3146 3146
3134 3135 3137 3138 3138 3139 3139 3139 3139 3139 3139 3140 3140 3140 3140 3139 3139 3139 3139 3139 3139 3139 3139 3139 3139 3139 3139 3139 3139 3139 3139 3139 3139 3139 3139 3140 3140 3140 3140 3141 3141 3141 3142 3142 3142 3142 3143 3143 3143 3144 3145 3147 3148 3147 3146 3146 3146 3146 3145 3146 3146 3146 3146
3132 3133 3135 3136 3137 3138 3138 3138 3138 3138 3139 3139 3139 3140 3140 3140 3140 3140 3140 3139 3140 3140 3140 3140 3140 3140 3140 3140 3140 3140 3140 3140 3140 3140 3140 3140 3140 3141 3141 3141 3142 3142 3142 3142 3143 3143 3143 3143 3144 3144 3145 3147 3148 3148 3147 3146 3146 3146 3146 3146 3146 3146 3146
3130 3131 3133 3135 3136 3136 3137 3137 3137 3138 3138 3138 3139 3139 3139 3139 3140 3140 3140 3140 3140 3140 3140 3140 3140 3140 3140 3140 3140 3140 3140 3141 3141 3141 3141 3141 3141 3141 3141 3142 3142 3142 3143 3143 3143 3143 3144 3144 3144 3144 3144 3145 3146 3148 3148 3147 3146 3146 3146 3146 3146 3146 3146
3128 3129 3131 3133 3134 3135 3136 3136 3136 3137 3137 3137 3138 3138 3139 3139 3139 3139 3139 3139 3139 3139 3140 3140 3140 3141 3141 3141 3141 3141 3141 3141 3141 3141 3141 3142 3142 3142 3142 3142 3143 3143 3143 3143 3144 3144 3144 3144 3144 3145 3145 3145 3146 3146 3147 3146 3146 3146 3146 3146 3147 3147 3147
3127 3128 3130 3131 3132 3133 3135 3135 3135 3136 3136 3136 3137 3137 3138 3138 3138 3139 3139 3139 3139 3139 3139 3140 3140 3141 3141 3141 3141 3141 3141 3141 3141 3141 3141 3142 3142 3142 3143 3143 3143 3143 3143 3144 3144 3144 3144 3144 3145 3145 3145 3146 3146 3146 3146 3146 3146 3146 3146 3147 3147 3147 3147
3125 3127 3128 3129 3130 3132 3133 3134 3134 3135 3135 3136 3136 3136 3137 3137 3138 3138 3138 3138 3138 3138 3139 3139 3140 3140 3140 3141 3141 3141 3141 3141 3141 3141 3141 3142 3142 3142 3143 3143 3143 3144 3144 3144 3144 3145 3145 3145 3145 3145 3146 3146 3146 3146 3147 3146 3146 3146 3146 3146 3146 3146 3146
3123 3125 3126 3126 3128 3129 3131 3132 3132 3133 3134 3135 3135 3135 3136 3136 3137 3137 3137 3138 3138 3138 3138 3139 3139 3139 3140 3140 3140 3141 3141 3141 3141 3141 3142 3142 3142 3142 3142 3142 3143 3143 3144 3144 3144 3144 3145 3145 3145 3145 3146 3146 3146 3146 3146 3146 3146 3146 3146 3146 3146 3146 3145
3121 3122 3122 3123 3125 3127 3128 3130 3130 3131 3132 3133 3134 3134 3135 3135 3136 3136 3136 3137 3137 3137 3138 3138 3138 3138 3139 3139 3139 3140 3140 3140 3141 3141 3141 3141 3141 3141 3142 3142 3142 3143 3143 3143 3143 3144 3144 3144 3145 3145 3145 3145 3145 3145 3145 3145 3145 3145 3145 3145 3145 3144 3143
3118 3119 3119 3121 3123 3124 3126 3127 3128 3129 3131 3132 3132 3133 3133 3134 3135 3135 3135 3135 3135 3136 3136 3136 3137 3137 3137 3138 3138 3138 3138 3138 3139 3139 3139 3140 3140 3140 3141 3141 3141 3142 3142 3142 3143 3143 3143 3143 3143 3143 3144 3144 3144 3144 3144 3144 3144 3144 3144 3144 3144 3143 3142
3116 3117 3118 3120 3121 3122 3123 3125 3126 3127 3128 3130 3130 3131 3132 3133 3133 3133 3133 3133 3133 3134 3134 3134 3134 3135 3135 3136 3136 3136 3136 3136 3136 3136 3136 3137 3138 3138 3139 3139 3140 3140 3141 3141 3142 3142 3142 3142 3142 3142 3142 3142 3142 3143 3143 3143 3143 3143 3143 3142 3142 3142 3141
3113 3115 3117 3118 3119 3120 3121 3122 3123 3125 3126 3127 3128 3129 3130 3131 3131 3131 3132 3132 3131 3131 3132 3132 3132 3132 3133 3133 3134 3133 3133 3133 3132 3132 3133 3134 3135 3136 3136 3137 3137 3138 3139 3139 3140 3140 3141 3141 3141 3141 3141 3141 3141 3141 3141 3142 3141 3141 3141 3141 3140 3139 3139
3111 3113 3115 3116 3117 3118 3119 3120 3121 3122 3123 3125 3126 3127 3128 3128 3129 3129 3129 3129 3129 3129 3129 3130 3130 3130 3131 3131 3131 3131 3130 3130 3129 3129 3130 3130 3131 3132 3133 3134 3135 3135 3136 3137 3138 3138 3139 3139 3140 3140 3140 3140 3140 3139 3140 3140 3140 3139 3139 3139 3138 3138 3137
3108 3110 3112 3113 3115 3116 3116 3117 3118 3119 3120 3122 3123 3124 3125 3125 3126 3126 3126 3127 3127 3126 3126 3127 3127 3127 3128 3129 3128 3128 3128 3127 3128 3127 3128 3128 3128 3129 3130 3132 3133 3133 3134 3135 3135 3136 3137 3137 3137 3137 3138 3138 3138 3137 3137 3138 3138 3138 3137 3137 3137 3136 3135
3105 3106 3109 3111 3112 3113 3113 3114 3115 3116 3118 3119 3120 3121 3122 3122 3123 3123 3123 3123 3123 3122 3123 3125 3125 3126 3126 3126 3126 3126 3126 3127 3128 3128 3127 3127 3126 3126 3127 3129 3131 3132 3133 3133 3134 3134 3135 3135 3135 3135 3136 3136 3136 3136 3135 3136 3136 3135 3135 3136 3135 3134 3134
3103 3105 3107 3108 3109 3109 3109 3110 3112 3114 3115 3117 3118 3119 3120 3120 3121 3121 3120 3119 3119 3119 3121 3123 3124 3125 3125 3124 3124 3125 3126 3126 3126 3126 3126 3125 3125 3125 3125 3127 3129 3130 3131 3132 3132 3132 3133 3133 3133 3133 3133 3133 3133 3133 3133 3133 3133 3133 3133 3133 3132 3132 3132
3104 3105 3106 3107 3107 3107 3107 3108 3111 3113 3114 3115 3116 3117 3118 3119 3120 3121 3119 3117 3116 3117 3119 3121 3122 3123 3124 3123 3123 3123 3124 3124 3124 3124 3123 3123 3123 3124 3124 3125 3127 3128 3129 3130 3130 3130 3131 3131 3131 3131 3131 3131 3131 3131 3131 3131 3130 3130 3130 3130 3129 3128 3128
3104 3104 3105 3105 3105 3105 3106 3108 3110 3112 3112 3113 3114 3115 3115 3116 3117 3118 3118 3115 3114 3116 3118 3120 3120 3121 3122 3122 3121 3121 3122 3122 3122 3122 3122 3122 3122 3123 3124 3124 3125 3126 3127 3127 3127 3128 3128 3128 3128 3128 3129 3129 3129 3128 3128 3128 3127 3127 3126 3126 3126 3125 3124
3102 3103 3103 3104 3105 3105 3105 3106 3108 3109 3110 3110 3111 3112 3113 3113 3113 3113 3114 3113 3113 3115 3117 3118 3118 3119 3120 3120 3120 3120 3120 3120 3121 3121 3121 3122 3123 3123 3124 3124 3124 3124 3125 3125 3125 3125 3125 3125 3125 3125 3125 3126 3126 3125 3125 3125 3125 3124 3123 3123 3123 3122 3121
3101 3101 3102 3102 3103 3103 3103 3104 3106 3106 3107 3108 3109 3110 3110 3111 3111 3111 3112 3112 3112 3113 3115 3115 3116 3117 3118 3119 3119 3119 3119 3119 3120 3120 3121 3121 3122 3122 3123 3123 3123 3122 3123 3123 3123 3123 3123 3123 3122 3122 3122 3122 3122 3122 3122 3122 3122 3121 3121 3120 3120 3119 3118
3101 3101 3101 3101 3101 3101 3102 3103 3104 3105 3105 3106 3107 3108 3109 3109 3110 3110 3110 3110 3110 3111 3112 3113 3115 3115 3116 3117 3117 3117 3118 3118 3119 3119 3120 3120 3120 3121 3121 3121 3121 3120 3120 3121 3121 3120 3120 3120 3119 3119 3119 3119 3119 3119 3119 3119 3118 3118 3118 3117 3116 3116 3115
3100 3100 3101 3101 3101 3101 3101 3102 3102 3103 3104 3105 3105 3106 3107 3108 3108 3108 3108 3108 3109 3110 3110 3112 3113 3113 3114 3115 3115 3115 3116 3116 3117 3117 3117 3117 3118 3118 3118 3118 3118 3118 3118 3118 3118 3118 3117 3117 3116 3116 3116 3116 3115 3115 3115 3115 3115 3115 3114 3114 3113 3112 3112
3099 3099 3100 3100 3100 3100 3100 3101 3101 3101 3102 3103 3104 3104 3105 3106 3106 3106 3106 3106 3107 3108 3108 3109 3110 3111 3112 3112 3113 3113 3114 3114 3115 3115 3114 3114 3114 3115 3115 3115 3115 3116 3116 3115 3115 3115 3114 3114 3113 3112 3113 3113 3112 3112 3112 3112 3111 3111 3110 3110 3109 3108 3107
3097 3097 3098 3098 3098 3099 3099 3099 3100 3100 3101 3102 3102 3103 3103 3103 3104 3104 3104 3105 3105 3106 3106 3107 3108 3109 3109 3110 3111 3112 3112 3112 3112 3112 3111 3111 3111 3112 3112 3112 3112 3113 3113 3112 3112 3112 3111 3111 3109 3108 3109 3109 3108 3108 3108 3108 3108 3107 3106 3106 3105 3104 3103
3095 3095 3096 3096 3097 3097 3097 3098 3098 3099 3100 3100 3101 3102 3102 3101 3102 3102 3103 3103 3103 3104 3104 3105 3106 3106 3107 3108 3108 3109 3110 3110 3110 3110 3108 3107 3108 3109 3110 3109 3109 3109 3109 3109 3109 3109 3109 3108 3107 3105 3105 3104 3104 3103 3103 3105 3104 3103 3102 3102 3101 3100 3099
3092 3093 3094 3094 3095 3095 3095 3095 3096 3096 3097 3098 3099 3099 3099 3099 3099 3100 3101 3101 3101 3101 3102 3103 3103 3104 3104 3105 3106 3107 3108 3108 3107 3107 3106 3104 3104 3105 3105 3106 3106 3106 3106 3106 3106 3106 3106 3105 3104 3103 3103 3102 3101 3099 3099 3099 3100 3100 3098 3097 3096 3095 3095
3090 3091 3091 3092 3092 3092 3092 3093 3093 3094 3095 3096 3096 3096 3096 3096 3096 3097 3098 3098 3098 3099 3100 3100 3101 3102 3102 3103 3103 3104 3105 3105 3105 3105 3104 3103 3102 3100 3099 3101 3104 3104 3103 3103 3103 3103 3103 3102 3102 3101 3100 3099 3098 3097 3096 3095 3095 3095 3095 3093 3092 3091 3089
3088 3088 3089 3089 3089 3090 3090 3090 3091 3092 3093 3093 3093 3093 3094 3094 3094 3094 3095 3095 3095 3096 3097 3097 3098 3098 3099 3099 3100 3100 3101 3101 3102 3102 3101 3102 3101 3098 3095 3097 3100 3100 3100 3100 3099 3099 3099 3099 3098 3097 3097 3096 3095 3094 3093 3092 3091 3090 3090 3089 3088 3087 3085
3085 3085 3086 3086 3086 3087 3087 3088 3088 3089 3090 3090 3090 3090 3091 3091 3092 3091 3091 3091 3092 3092 3093 3094 3094 3095 3095 3096 3096 3097 3097 3098 3098 3099 3099 3099 3098 3094 3094 3095 3096 3096 3096 3096 3096 3095 3095 3095 3094 3093 3093 3092 3092 3091 3090 3088 3087 3086 3085 3084 3083 3082 3081
3081 3081 3082 3082 3083 3083 3084 3085 3085 3086 3086 3087 3087 3087 3087 3088 3089 3088 3088 3088 3088 3088 3089 3090 3091 3091 3092 3092 3092 3093 3093 3094 3095 3095 3095 3096 3094 3091 3092 3093 3092 3092 3092 3092 3092 3092 3091 3090 3090 3090 3089 3088 3088 3087 3086 3084 3083 3082 3081 3079 3078 3078 3076